Location: Anjeux
(47.8815°N, 6.2076°E)
Time: 05:25:17
(UTC+00:00)

BUGSAT 1 - Visible Passes

Search period start: 05 December 2021 00:00
Search period end: 15 December 2021 00:00
Orbit: 558 x 600 km, 98.1° (Epoch: 04 December)

Date Brightness Start Highest point End Pass type
(mag) Time Alt. Az. Time Alt. Az. Time Alt. Az.
05 Dec ? 03:45:17 10° NE 03:48:25 20° E 03:51:32 10° SE visible
05 Dec ? 05:19:51 10° N 05:23:54 45° WNW 05:27:56 10° SW visible
05 Dec ? 16:12:05 10° SSW 16:15:54 39° W 16:19:49 10° NNW visible
06 Dec ? 03:49:52 10° NE 03:53:10 22° E 03:56:28 10° SE visible
06 Dec ? 05:24:36 10° N 05:28:35 41° WNW 05:32:33 10° SW visible
06 Dec ? 16:16:52 10° SSW 16:20:37 35° W 16:24:28 10° NNW visible
07 Dec ? 03:54:27 10° NE 03:57:56 24° E 04:01:22 10° SSE visible
07 Dec ? 05:29:23 10° N 05:33:16 37° WNW 05:37:10 10° SW visible
07 Dec ? 16:21:42 10° SSW 16:25:22 32° W 16:29:07 10° NNW visible
08 Dec ? 03:59:04 10° NE 04:02:40 27° E 04:06:15 10° SSE visible
08 Dec ? 05:34:08 10° N 05:37:58 33° WNW 05:41:46 10° SW visible
08 Dec ? 16:26:31 10° SSW 16:30:06 29° W 16:33:45 10° NW visible
09 Dec ? 04:03:40 10° NE 04:07:24 29° E 04:11:07 10° SSE visible
09 Dec ? 05:38:54 10° N 05:42:38 30° WNW 05:46:21 10° SW visible
09 Dec ? 16:31:22 10° SSW 16:34:50 26° W 16:38:21 10° NW visible
10 Dec ? 04:08:17 10° NNE 04:12:08 32° E 04:15:57 10° SSE visible
10 Dec ? 05:43:41 10° N 05:47:18 28° WNW 05:50:55 10° SW visible
10 Dec ? 16:36:14 10° SSW 16:39:34 24° W 16:42:57 10° NW visible
11 Dec ? 04:12:56 10° NNE 04:16:52 36° E 04:20:45 10° SSE visible
11 Dec ? 05:48:28 10° N 05:51:58 25° WNW 05:55:27 10° WSW visible
11 Dec ? 16:41:06 10° SW 16:44:18 21° W 16:47:32 10° NW visible
12 Dec ? 04:17:34 10° NNE 04:21:34 40° E 04:25:33 10° SSE visible
12 Dec ? 05:53:15 10° N 05:56:38 23° WNW 05:59:59 10° WSW visible
12 Dec ? 16:46:00 10° SW 16:49:01 19° W 16:52:05 10° NW visible
13 Dec ? 04:22:12 10° NNE 04:26:17 44° E 04:30:20 10° S visible
13 Dec ? 05:58:03 10° NNW 06:01:17 21° WNW 06:04:29 10° WSW visible
13 Dec ? 16:50:56 10° SW 16:53:46 18° W 16:56:38 10° NW visible
14 Dec ? 04:26:52 10° NNE 04:31:00 49° E 04:35:05 10° S visible
14 Dec ? 06:02:52 10° NNW 06:05:55 20° WNW 06:08:58 10° WSW visible
14 Dec ? 16:55:54 10° SW 16:58:29 16° W 17:01:07 10° NW visible
